Date String (YYYY-MM-DD hh:mm:ss) UTC,Instrument flags,absolute air pressure of the measurement (hPa),sample flow rate (lpm),inlet stack bypass flow (lpm),air temperature of the measurement (°C),ambient temperature measured by the external sensor (°C),aerosol sample conditioner tube jacket temperature (°C),OPC LED temperature (°C),internal box temperature (°C),relative humidity of the measurement (%),span deviation,mass concentration of particles derived from Lorenz-Mie calculation of OPC scattering (μg/m³),mass concentration of particles derived from Lorenz-Mie calculation of OPC scattering (μg/m³),mass concentration of particles derived from Lorenz-Mie calculation of OPC scattering (μg/m³)
DateTimeUTC,F1_M11,P_M11,Q1_M11,Q2_M11,T1_M11,T2_M11,T3_M11,T4_M11,T5_M11,U1_M11,ZSPAN_M11,X2_M11,X0_M11,X1_M11
2024-04-26 17:00:00,SystemResetWarning,0815.9,5.01,000.00,025.9,025.1,000.0,034.3,027.7,013.6,0000.0,0001.97,0003.52,0001.35
2024-04-26 17:01:00,SystemResetWarning,0816.0,5.00,000.00,025.9,025.2,000.0,034.3,027.8,013.4,0000.0,0001.94,0003.42,0001.36
2024-04-26 17:02:00,SystemResetWarning,0816.0,5.00,000.00,026.0,025.2,000.0,034.3,027.8,013.7,0000.0,0001.97,0003.49,0001.37
2024-04-26 17:03:00,SystemResetWarning,0816.0,4.99,000.00,026.0,025.3,000.0,034.3,027.8,013.9,0000.0,0001.98,0003.52,0001.37
2024-04-26 17:04:00,SystemResetWarning,0816.1,4.99,000.00,026.0,025.3,000.0,034.3,027.9,013.8,0000.0,0002.03,0004.24,0001.39
2024-04-26 17:05:00,SystemResetWarning,0816.0,4.99,000.00,026.1,025.4,000.0,034.4,027.9,013.9,0000.0,0002.01,0004.88,0001.39
2024-04-26 17:06:00,SystemResetWarning,0815.8,5.01,000.00,026.1,025.4,000.0,034.4,027.9,014.2,0000.0,0001.98,0004.85,0001.39
2024-04-26 17:07:00,SystemResetWarning,0816.0,5.00,000.00,026.1,025.5,000.0,034.4,027.9,013.9,0000.0,0001.98,0004.86,0001.38
2024-04-26 17:08:00,SystemResetWarning,0816.0,5.01,000.00,026.1,025.5,000.0,034.4,028.0,013.8,0000.0,0001.99,0004.69,0001.37
2024-04-26 17:09:00,SystemResetWarning,0815.9,5.00,000.00,026.2,025.5,000.0,034.4,028.0,013.8,0000.0,0001.91,0004.40,0001.34
2024-04-26 17:10:00,SystemResetWarning,0815.9,5.00,000.00,026.2,025.5,000.0,034.4,028.0,014.0,0000.0,0001.83,0004.55,0001.30
2024-04-26 17:11:00,SystemResetWarning,0815.9,4.99,000.00,026.2,025.5,000.0,034.5,028.0,014.0,0000.0,0001.80,0004.59,0001.26
2024-04-26 17:12:00,SystemResetWarning,0815.9,5.00,000.00,026.2,025.5,000.0,034.5,028.0,013.9,0000.0,0001.78,0004.64,0001.22
2024-04-26 17:13:00,SystemResetWarning,0816.0,5.00,000.00,026.2,025.5,000.0,034.5,028.0,014.0,0000.0,0001.68,0004.39,0001.18
2024-04-26 17:14:00,SystemResetWarning,0816.0,5.00,000.00,026.2,025.1,000.0,034.5,027.8,014.0,0000.0,0001.62,0004.25,0001.14
2024-04-26 17:15:00,SystemResetWarning,0816.0,5.00,000.00,025.9,023.3,000.0,034.6,026.7,014.3,0000.0,0001.53,0003.52,0001.08
2024-04-26 17:16:00,SystemResetWarning,0816.0,5.01,000.00,025.5,022.4,000.0,034.5,026.2,014.8,0000.0,0001.47,0002.71,0001.06
2024-04-26 17:17:00,SystemResetWarning,0816.0,5.02,000.00,025.3,022.7,000.0,034.4,026.3,015.1,0000.0,0001.47,0002.73,0001.04
2024-04-26 17:18:00,SystemResetWarning,0816.0,4.99,000.00,025.3,023.0,000.0,034.3,026.5,015.8,0000.0,0001.42,0003.27,0001.02
2024-04-26 17:19:00,SystemResetWarning,0816.0,5.00,000.00,025.3,023.3,000.0,034.2,026.7,015.8,0000.0,0001.33,0003.28,0000.98
2024-04-26 17:20:00,SystemResetWarning,0816.0,5.01,000.00,025.3,023.6,000.0,034.1,026.9,015.5,0000.0,0001.27,0003.23,0000.94
2024-04-26 17:21:00,SystemResetWarning,0816.1,5.01,000.00,025.4,023.9,000.0,034.1,027.0,015.4,0000.0,0001.25,0002.94,0000.91
2024-04-26 17:22:00,SystemResetWarning,0816.1,4.98,000.00,025.4,024.1,000.0,034.0,027.1,016.0,0000.0,0001.25,0002.94,0000.89
2024-04-26 17:23:00,SystemResetWarning,0816.1,5.00,000.00,025.4,024.3,000.0,034.0,027.2,016.0,0000.0,0001.16,0003.05,0000.86
2024-04-26 17:24:00,SystemResetWarning,0816.1,5.01,000.00,025.5,024.4,000.0,034.0,027.3,015.7,0000.0,0001.12,0003.45,0000.82
2024-04-26 17:25:00,SystemResetWarning,0816.1,5.01,000.00,025.5,024.5,000.0,034.0,027.3,015.6,0000.0,0001.08,0004.88,0000.79
2024-04-26 17:26:00,SystemResetWarning,0816.1,5.00,000.00,025.6,024.6,000.0,034.0,027.4,015.6,0000.0,0001.04,0004.89,0000.75
2024-04-26 17:27:00,SystemResetWarning,0816.1,5.00,000.00,025.6,024.7,000.0,034.0,027.4,016.2,0000.0,0000.99,0004.82,0000.70
2024-04-26 17:28:00,SystemResetWarning,0816.1,5.00,000.00,025.6,024.8,000.0,034.0,027.5,015.6,0000.0,0000.96,0004.76,0000.66
2024-04-26 17:29:00,SystemResetWarning,0816.1,4.99,000.00,025.7,024.9,000.0,034.0,027.5,015.5,0000.0,0000.93,0005.48,0000.63
2024-04-26 17:30:00,SystemResetWarning,0816.1,5.00,000.00,025.7,024.9,000.0,034.0,027.5,016.0,0000.0,0000.92,0005.27,0000.61
2024-04-26 17:31:00,SystemResetWarning,0816.1,5.00,000.00,025.7,025.0,000.0,034.0,027.6,016.0,0000.0,0000.92,0005.25,0000.60
2024-04-26 17:32:00,SystemResetWarning,0816.1,5.01,000.00,025.8,025.1,000.0,034.1,027.6,016.0,0000.0,0000.89,0005.17,0000.60
2024-04-26 17:33:00,SystemResetWarning,0816.1,4.99,000.00,025.8,025.1,000.0,034.1,027.7,016.0,0000.0,0000.84,0005.06,0000.57
2024-04-26 17:34:00,SystemResetWarning,0816.1,4.99,000.00,025.8,025.2,000.0,034.1,027.7,015.6,0000.0,0000.84,0005.02,0000.57
2024-04-26 17:35:00,SystemResetWarning,0816.0,5.00,000.00,025.9,025.2,000.0,034.1,027.7,015.4,0000.0,0000.88,0004.39,0000.59
2024-04-26 17:36:00,SystemResetWarning,0816.1,5.02,000.00,025.9,025.2,000.0,034.1,027.8,014.4,0000.0,0000.88,0003.25,0000.62
2024-04-26 17:37:00,SystemResetWarning,0816.1,4.99,000.00,025.9,025.3,000.0,034.2,027.8,015.0,0000.0,0000.91,0004.46,0000.66
2024-04-26 17:38:00,SystemResetWarning,0816.1,4.99,000.00,026.0,025.3,000.0,034.2,027.8,014.6,0000.0,0000.96,0004.54,0000.69
2024-04-26 17:39:00,SystemResetWarning,0816.1,5.01,000.00,026.0,025.3,000.0,034.2,027.8,014.9,0000.0,0001.01,0004.65,0000.72
2024-04-26 17:40:00,SystemResetWarning,0816.1,5.00,000.00,025.9,024.3,000.0,034.3,027.2,015.1,0000.0,0001.01,0003.65,0000.73
2024-04-26 17:41:00,SystemResetWarning,0816.0,4.99,000.00,025.5,022.5,000.0,034.3,026.2,015.8,0000.0,0001.02,0003.27,0000.74
2024-04-26 17:42:00,SystemResetWarning,0816.0,5.02,000.00,025.2,022.3,000.0,034.2,026.0,014.9,0000.0,0001.04,0003.31,0000.74
2024-04-26 17:43:00,SystemResetWarning,0816.0,5.00,000.00,025.1,022.7,000.0,034.1,026.2,015.6,0000.0,0001.07,0003.37,0000.78
2024-04-26 17:44:00,SystemResetWarning,0816.0,5.00,000.00,025.1,023.0,000.0,034.0,026.4,015.8,0000.0,0001.11,0003.40,0000.80
2024-04-26 17:45:00,SystemResetWarning,0816.0,5.00,000.00,025.1,023.3,000.0,033.9,026.6,015.3,0000.0,0001.13,0003.44,0000.80
2024-04-26 17:46:00,SystemResetWarning,0816.1,5.00,000.00,025.2,023.6,000.0,033.8,026.8,015.4,0000.0,0001.13,0003.41,0000.80
2024-04-26 17:47:00,SystemResetWarning,0816.1,5.00,000.00,025.2,023.8,000.0,033.8,026.9,015.1,0000.0,0001.13,0003.40,0000.80
2024-04-26 17:48:00,SystemResetWarning,0816.1,5.01,000.00,025.3,024.0,000.0,033.8,027.0,015.0,0000.0,0001.12,0001.99,0000.79
2024-04-26 17:49:00,SystemResetWarning,0816.1,5.00,000.00,025.3,024.2,000.0,033.8,027.1,015.5,0000.0,0001.15,0001.87,0000.79
2024-04-26 17:50:00,SystemResetWarning,0816.0,4.99,000.00,025.3,024.3,000.0,033.8,027.2,016.1,0000.0,0001.13,0002.60,0000.79
2024-04-26 17:51:00,SystemResetWarning,0816.0,4.99,000.00,025.4,024.5,000.0,033.8,027.2,016.4,0000.0,0001.17,0002.69,0000.80
2024-04-26 17:52:00,SystemResetWarning,0816.0,5.01,000.00,025.4,024.6,000.0,033.8,027.3,016.0,0000.0,0001.18,0002.68,0000.82
2024-04-26 17:53:00,SystemResetWarning,0816.0,5.01,000.00,025.5,024.7,000.0,033.8,027.3,015.8,0000.0,0001.21,0002.69,0000.85
2024-04-26 17:54:00,SystemResetWarning,0815.9,4.99,000.00,025.5,024.8,000.0,033.8,027.4,016.1,0000.0,0001.24,0003.70,0000.86
2024-04-26 17:55:00,SystemResetWarning,0815.9,4.99,000.00,025.6,024.8,000.0,033.8,027.4,015.5,0000.0,0001.27,0004.31,0000.87
2024-04-26 17:56:00,SystemResetWarning,0816.0,5.01,000.00,025.6,024.9,000.0,033.9,027.5,014.4,0000.0,0001.33,0004.78,0000.90
2024-04-26 17:57:00,SystemResetWarning,0816.1,5.01,000.00,025.6,025.0,000.0,033.9,027.5,014.7,0000.0,0001.39,0004.93,0000.93
2024-04-26 17:58:00,SystemResetWarning,0816.0,5.00,000.00,025.7,025.0,000.0,033.9,027.6,014.6,0000.0,0001.41,0005.55,0000.94
2024-04-26 17:59:00,SystemResetWarning,0816.0,4.99,000.00,025.7,025.1,000.0,033.9,027.6,015.1,0000.0,0001.44,0006.06,0000.95
